Location: Banff
(51.1667°N, 115.5667°W)
Time: 06:40:29
(UTC+00:00)

N. Korean satellite - Pass Details

Date: 04 December 2022
Orbit: 407 x 442 km, 97.3° (Epoch: 04 February)

Event Time Altitude Azimuth Distance (km) Brightness Sun altitude
Rises 14:19:43 0° 360° (N) 2,526 10.0 -10.2°
Reaches altitude 10° 14:22:17 10° 340° (NNW) 1,639 8.8 -9.8°
Maximum altitude 14:24:39 17° 298° (WNW) 1,246 8.0 -9.5°
Drops below altitude 10° 14:27:00 10° 255° (WSW) 1,617 8.8 -9.1°
Sets 14:29:30 0° 235° (SW) 2,476 9.9 -8.8°
